Location: Marse
(42.1502°N, 110.9866°W)
Time: 05:00:47
(UTC+00:00)

ITUPSAT 1 - Pass Details

Date: 02 July 2022
Orbit: 701 x 711 km, 98.6° (Epoch: 16 August)

Event Time Altitude Azimuth Distance (km) Brightness Sun altitude
Rises 05:07:23 0° 357° (N) 3,110 ? -17.2°
Reaches altitude 10° 05:10:15 10° 340° (NNW) 2,189 ? -17.5°
Maximum altitude 05:13:28 18° 297° (WNW) 1,693 ? -17.8°
Drops below altitude 10° 05:16:41 10° 255° (WSW) 2,183 ? -18.1°
Sets 05:19:33 0° 237° (WSW) 3,098 ? -18.4°
